Voltar ao catálogo

STARLINK-34413

AtivoComunicaçõesVLEO
NORAD 64616·PAYLOAD·🇺🇸 United States

Lançado Jun 25, 2025 de Cape Canaveral Space Force Station

Loading…

Próximas Passagens (próximas 24 horas)

TLE

AtualizadoSource: CelesTrak SupGP

Época: Sep 15, 2026, 03:01 UTC

1 64616C 25137Y   26258.12618056 -.00026993  00000+0 -79769-3 0  2582
2 64616  53.1575 172.5928 0001294  89.6125  29.8221 15.34397378    17

Acompanhe STARLINK-34413 em tempo real com AllMySat

Download on the App Store